Terug naar catalogus

ESTRELA DU SOL-TELSTAR14

ActiefCommunicatieGEO
NORAD 28137·PAYLOAD·🇧🇷 Brazil🇺🇸 United States

Gelanceerd Jan 11, 2004 vanaf Sea Launch Platform

Loading…

TLE

VersSource: Space-Track

Epoch: Sep 14, 2026, 11:59 UTC

1 28137U 04001A   26257.49972637  .00000031  00000-0  00000-0 0  9999
2 28137  11.2624  43.7589 0002904  65.1081 311.4173  0.98829889 82473

Volg ESTRELA DU SOL-TELSTAR14 in realtime met AllMySat

Download on the App Store